{"data":{"norad_id":52707,"epoch":"2026-09-19T16:52:09.487776Z","epoch_age_seconds":135343,"freshness":"FRESH","line1":"1 52707U 22053BD  26262.70288759  .00011844  00000+0  67016-3 0  9997","line2":"2 52707  53.2174 340.5280 0001856  48.7391 311.3763 15.13466589240704","mean_motion":15.13466589,"eccentricity":0.0001856,"inclination_deg":53.2174,"raan_deg":340.528,"arg_perigee_deg":48.7391,"mean_anomaly_deg":311.3763,"bstar":0.00067016,"rev_number":24070,"period_min":95.145807014574,"perigee_km":524.35645412985,"apogee_km":526.91913533366,"semimajor_km":6903.7747947318,"source":"CELESTRAK","updated_at":"2026-09-20T09:00:40.110024Z"}}